Year,Month,Day,Hour,Minute,Value (Times are PST for temperature in C)
2013,03,25,00,00,5.60
2013,03,25,00,01,5.60
2013,03,25,00,02,5.60
2013,03,25,00,03,5.70
2013,03,25,00,04,5.70
2013,03,25,00,05,5.70
2013,03,25,00,06,5.70
2013,03,25,00,07,5.70
2013,03,25,00,08,5.70
2013,03,25,00,09,5.70
2013,03,25,00,10,5.70
2013,03,25,00,11,5.80
2013,03,25,00,12,5.80
2013,03,25,00,13,5.80
2013,03,25,00,14,5.80
2013,03,25,00,15,5.80
2013,03,25,00,16,5.80
2013,03,25,00,17,5.80
2013,03,25,00,18,5.80
2013,03,25,00,19,5.80
2013,03,25,00,20,5.80
2013,03,25,00,21,5.80
2013,03,25,00,22,5.80
2013,03,25,00,23,5.80
2013,03,25,00,24,5.80
2013,03,25,00,25,5.80
2013,03,25,00,26,5.70
2013,03,25,00,27,5.70
2013,03,25,00,28,5.70
2013,03,25,00,29,5.70
2013,03,25,00,30,5.70
2013,03,25,00,31,5.70
2013,03,25,00,32,5.70
2013,03,25,00,33,5.70
2013,03,25,00,34,5.70
2013,03,25,00,35,5.70
2013,03,25,00,36,5.70
2013,03,25,00,37,5.70
2013,03,25,00,38,5.70
2013,03,25,00,39,5.70
2013,03,25,00,40,5.70
2013,03,25,00,41,5.60
2013,03,25,00,42,5.60
2013,03,25,00,43,5.60
2013,03,25,00,44,5.60
2013,03,25,00,45,5.50
2013,03,25,00,46,5.50
2013,03,25,00,47,5.50
2013,03,25,00,48,5.50
2013,03,25,00,49,5.40
2013,03,25,00,50,5.40
2013,03,25,00,51,5.40
2013,03,25,00,52,5.40
2013,03,25,00,53,5.40
2013,03,25,00,54,5.30
2013,03,25,00,55,5.30
2013,03,25,00,56,5.30
2013,03,25,00,57,5.30
2013,03,25,00,58,5.30
2013,03,25,00,59,5.30
2013,03,25,01,00,5.30
2013,03,25,01,01,5.30
2013,03,25,01,02,5.30
2013,03,25,01,03,5.40
2013,03,25,01,04,5.40
2013,03,25,01,05,5.40
2013,03,25,01,06,5.40
2013,03,25,01,07,5.40
2013,03,25,01,08,5.40
2013,03,25,01,09,5.40
2013,03,25,01,10,5.50
2013,03,25,01,11,5.50
2013,03,25,01,12,5.50
2013,03,25,01,13,5.50
2013,03,25,01,14,5.50
2013,03,25,01,15,5.50
2013,03,25,01,16,5.50
2013,03,25,01,17,5.50
2013,03,25,01,18,5.50
2013,03,25,01,19,5.50
2013,03,25,01,20,5.50
2013,03,25,01,21,5.50
2013,03,25,01,22,5.40
2013,03,25,01,23,5.40
2013,03,25,01,24,5.40
2013,03,25,01,25,5.40
2013,03,25,01,26,5.40
2013,03,25,01,27,5.40
2013,03,25,01,28,5.30
2013,03,25,01,29,5.30
2013,03,25,01,30,5.30
2013,03,25,01,31,5.30
2013,03,25,01,32,5.30
2013,03,25,01,33,5.30
2013,03,25,01,34,5.30
2013,03,25,01,35,5.30
2013,03,25,01,36,5.30
2013,03,25,01,37,5.30
2013,03,25,01,38,5.30
2013,03,25,01,39,5.30
2013,03,25,01,40,5.30
2013,03,25,01,41,5.30
2013,03,25,01,42,5.30
2013,03,25,01,43,5.30
2013,03,25,01,44,5.30
2013,03,25,01,45,5.30
2013,03,25,01,46,5.30
2013,03,25,01,47,5.30
2013,03,25,01,48,5.30
2013,03,25,01,49,5.30
2013,03,25,01,50,5.30
2013,03,25,01,51,5.30
2013,03,25,01,52,5.30
2013,03,25,01,53,5.30
2013,03,25,01,54,5.40
2013,03,25,01,55,5.40
2013,03,25,01,56,5.40
2013,03,25,01,57,5.40
2013,03,25,01,58,5.40
2013,03,25,01,59,5.40
2013,03,25,02,00,5.40
2013,03,25,02,01,5.40
2013,03,25,02,02,5.30
2013,03,25,02,03,5.30
2013,03,25,02,04,5.30
2013,03,25,02,05,5.30
2013,03,25,02,06,5.30
2013,03,25,02,07,5.30
2013,03,25,02,08,5.30
2013,03,25,02,09,5.30
2013,03,25,02,10,5.30
2013,03,25,02,11,5.30
2013,03,25,02,12,5.30
2013,03,25,02,13,5.30
2013,03,25,02,14,5.30
2013,03,25,02,15,5.30
2013,03,25,02,16,5.30
2013,03,25,02,17,5.30
2013,03,25,02,18,5.30
2013,03,25,02,19,5.30
2013,03,25,02,20,5.30
2013,03,25,02,21,5.30
2013,03,25,02,22,5.30
2013,03,25,02,23,5.30
2013,03,25,02,24,5.20
2013,03,25,02,25,5.20
2013,03,25,02,26,5.20
2013,03,25,02,27,5.20
2013,03,25,02,28,5.20
2013,03,25,02,29,5.20
2013,03,25,02,30,5.20
2013,03,25,02,31,5.20
2013,03,25,02,32,5.20
2013,03,25,02,33,5.10
2013,03,25,02,34,5.10
2013,03,25,02,35,5.10
2013,03,25,02,36,5.10
2013,03,25,02,37,5.10
2013,03,25,02,38,5.10
2013,03,25,02,39,5.10
2013,03,25,02,40,5.10
2013,03,25,02,41,5.00
2013,03,25,02,42,4.90
2013,03,25,02,43,4.90
2013,03,25,02,44,4.90
2013,03,25,02,45,4.90
2013,03,25,02,46,4.90
2013,03,25,02,47,4.90
2013,03,25,02,48,4.90
2013,03,25,02,49,4.90
2013,03,25,02,50,4.90
2013,03,25,02,51,4.90
2013,03,25,02,52,4.90
2013,03,25,02,53,4.90
2013,03,25,02,54,4.90
2013,03,25,02,55,4.90
2013,03,25,02,56,4.90
2013,03,25,02,57,4.90
2013,03,25,02,58,4.90
2013,03,25,02,59,4.90
2013,03,25,03,00,4.90
2013,03,25,03,01,4.90
2013,03,25,03,02,4.80
2013,03,25,03,03,4.80
2013,03,25,03,04,4.80
2013,03,25,03,05,4.80
2013,03,25,03,06,4.80
2013,03,25,03,07,4.80
2013,03,25,03,08,4.80
2013,03,25,03,09,4.80
2013,03,25,03,10,4.80
2013,03,25,03,11,4.80
2013,03,25,03,12,4.90
2013,03,25,03,13,4.90
2013,03,25,03,14,4.90
2013,03,25,03,15,4.90
2013,03,25,03,16,4.80
2013,03,25,03,17,4.80
2013,03,25,03,18,4.80
2013,03,25,03,19,4.80
2013,03,25,03,20,4.80
2013,03,25,03,21,4.80
2013,03,25,03,22,4.70
2013,03,25,03,23,4.70
2013,03,25,03,24,4.70
2013,03,25,03,25,4.60
2013,03,25,03,26,4.60
2013,03,25,03,27,4.60
2013,03,25,03,28,4.60
2013,03,25,03,29,4.60
2013,03,25,03,30,4.60
2013,03,25,03,31,4.60
2013,03,25,03,32,4.60
2013,03,25,03,33,4.60
2013,03,25,03,34,4.60
2013,03,25,03,35,4.60
2013,03,25,03,36,4.60
2013,03,25,03,37,4.60
2013,03,25,03,38,4.60
2013,03,25,03,39,4.60
2013,03,25,03,40,4.60
2013,03,25,03,41,4.60
2013,03,25,03,42,4.60
2013,03,25,03,43,4.50
2013,03,25,03,44,4.50
2013,03,25,03,45,4.50
2013,03,25,03,46,4.50
2013,03,25,03,47,4.50
2013,03,25,03,48,4.50
2013,03,25,03,49,4.50
2013,03,25,03,50,4.50
2013,03,25,03,51,4.50
2013,03,25,03,52,4.40
2013,03,25,03,53,4.40
2013,03,25,03,54,4.40
2013,03,25,03,55,4.40
2013,03,25,03,56,4.40
2013,03,25,03,57,4.40
2013,03,25,03,58,4.30
2013,03,25,03,59,4.30
2013,03,25,04,00,4.30
2013,03,25,04,01,4.30
2013,03,25,04,02,4.30
2013,03,25,04,03,4.30
2013,03,25,04,04,4.30
2013,03,25,04,05,4.30
2013,03,25,04,06,4.30
2013,03,25,04,07,4.30
2013,03,25,04,08,4.30
2013,03,25,04,09,4.30
2013,03,25,04,10,4.30
2013,03,25,04,11,4.30
2013,03,25,04,12,4.30
2013,03,25,04,13,4.30
2013,03,25,04,14,4.30
2013,03,25,04,15,4.30
2013,03,25,04,16,4.30
2013,03,25,04,17,4.30
2013,03,25,04,18,4.30
2013,03,25,04,19,4.30
2013,03,25,04,20,4.30
2013,03,25,04,21,4.30
2013,03,25,04,22,4.30
2013,03,25,04,23,4.30
2013,03,25,04,24,4.30
2013,03,25,04,25,4.30
2013,03,25,04,26,4.20
2013,03,25,04,27,4.20
2013,03,25,04,28,4.20
2013,03,25,04,29,4.20
2013,03,25,04,30,4.20
2013,03,25,04,31,4.20
2013,03,25,04,32,4.20
2013,03,25,04,33,4.20
2013,03,25,04,34,4.20
2013,03,25,04,35,4.20
2013,03,25,04,36,4.20
2013,03,25,04,37,4.20
2013,03,25,04,38,4.20
2013,03,25,04,39,4.20
2013,03,25,04,40,4.20
2013,03,25,04,41,4.20
2013,03,25,04,42,4.20
2013,03,25,04,43,4.20
2013,03,25,04,44,4.20
2013,03,25,04,45,4.20
2013,03,25,04,46,4.30
2013,03,25,04,47,4.30
2013,03,25,04,48,4.30
2013,03,25,04,49,4.30
2013,03,25,04,50,4.30
2013,03,25,04,51,4.40
2013,03,25,04,52,4.40
2013,03,25,04,53,4.40
2013,03,25,04,54,4.40
2013,03,25,04,55,4.40
2013,03,25,04,56,4.40
2013,03,25,04,57,4.40
2013,03,25,04,58,4.30
2013,03,25,04,59,4.30
2013,03,25,05,00,4.30
2013,03,25,05,01,4.20
2013,03,25,05,02,4.20
2013,03,25,05,03,4.20
2013,03,25,05,04,4.10
2013,03,25,05,05,4.10
2013,03,25,05,06,4.10
2013,03,25,05,07,4.00
2013,03,25,05,08,4.00
2013,03,25,05,09,4.00
2013,03,25,05,10,3.90
2013,03,25,05,11,3.90
2013,03,25,05,12,3.90
2013,03,25,05,13,3.80
2013,03,25,05,14,3.80
2013,03,25,05,15,3.80
2013,03,25,05,16,3.80
2013,03,25,05,17,3.80
2013,03,25,05,18,3.80
2013,03,25,05,19,3.80
2013,03,25,05,20,3.80
2013,03,25,05,21,3.70
2013,03,25,05,22,3.70
2013,03,25,05,23,3.60
2013,03,25,05,24,3.50
2013,03,25,05,25,3.50
2013,03,25,05,26,3.40
2013,03,25,05,27,3.30
2013,03,25,05,28,3.30
2013,03,25,05,29,3.30
2013,03,25,05,30,3.20
2013,03,25,05,31,3.10
2013,03,25,05,32,3.10
2013,03,25,05,33,3.10
2013,03,25,05,34,3.00
2013,03,25,05,35,2.90
2013,03,25,05,36,2.90
2013,03,25,05,37,2.90
2013,03,25,05,38,2.90
2013,03,25,05,39,2.90
2013,03,25,05,40,2.80
2013,03,25,05,41,2.80
2013,03,25,05,42,2.80
2013,03,25,05,43,2.80
2013,03,25,05,44,2.90
2013,03,25,05,45,2.90
2013,03,25,05,46,2.90
2013,03,25,05,47,2.90
2013,03,25,05,48,2.90
2013,03,25,05,49,2.90
2013,03,25,05,50,3.00
2013,03,25,05,51,3.10
2013,03,25,05,52,3.10
2013,03,25,05,53,3.10
2013,03,25,05,54,3.00
2013,03,25,05,55,2.90
2013,03,25,05,56,2.90
2013,03,25,05,57,2.80
2013,03,25,05,58,2.80
2013,03,25,05,59,2.70
2013,03,25,06,00,2.70
2013,03,25,06,01,2.60
2013,03,25,06,02,2.50
2013,03,25,06,03,2.50
2013,03,25,06,04,2.40
2013,03,25,06,05,2.30
2013,03,25,06,06,2.30
2013,03,25,06,07,2.20
2013,03,25,06,08,2.20
2013,03,25,06,09,2.10
2013,03,25,06,10,2.10
2013,03,25,06,11,2.00
2013,03,25,06,12,2.00
2013,03,25,06,13,2.00
2013,03,25,06,14,2.10
2013,03,25,06,15,2.10
2013,03,25,06,16,2.10
2013,03,25,06,17,2.10
2013,03,25,06,18,2.10
2013,03,25,06,19,2.20
2013,03,25,06,20,2.10
2013,03,25,06,21,2.10
2013,03,25,06,22,2.20
2013,03,25,06,23,2.20
2013,03,25,06,24,2.20
2013,03,25,06,25,2.20
2013,03,25,06,26,2.20
2013,03,25,06,27,2.20
2013,03,25,06,28,2.20
2013,03,25,06,29,2.20
2013,03,25,06,30,2.20
2013,03,25,06,31,2.10
2013,03,25,06,32,2.10
2013,03,25,06,33,2.10
2013,03,25,06,34,2.10
2013,03,25,06,35,2.10
2013,03,25,06,36,2.10
2013,03,25,06,37,2.10
2013,03,25,06,38,2.10
2013,03,25,06,39,2.10
2013,03,25,06,40,2.10
2013,03,25,06,41,2.10
2013,03,25,06,42,2.10
2013,03,25,06,43,2.20
2013,03,25,06,44,2.20
2013,03,25,06,45,2.20
2013,03,25,06,46,2.20
2013,03,25,06,47,2.20
2013,03,25,06,48,2.20
2013,03,25,06,49,2.20
2013,03,25,06,50,2.20
2013,03,25,06,51,2.20
2013,03,25,06,52,2.10
2013,03,25,06,53,2.00
2013,03,25,06,54,2.00
2013,03,25,06,55,1.90
2013,03,25,06,56,1.90
2013,03,25,06,57,1.90
2013,03,25,06,58,1.90
2013,03,25,06,59,1.90
2013,03,25,07,00,1.90
2013,03,25,07,01,1.90
2013,03,25,07,02,1.90
2013,03,25,07,03,1.80
2013,03,25,07,04,1.80
2013,03,25,07,05,1.70
2013,03,25,07,06,1.70
2013,03,25,07,07,1.60
2013,03,25,07,08,1.60
2013,03,25,07,09,1.60
2013,03,25,07,10,1.60
2013,03,25,07,11,1.60
2013,03,25,07,12,1.60
2013,03,25,07,13,1.60
2013,03,25,07,14,1.50
2013,03,25,07,15,1.50
2013,03,25,07,16,1.40
2013,03,25,07,17,1.40
2013,03,25,07,18,1.30
2013,03,25,07,19,1.30
2013,03,25,07,20,1.40
2013,03,25,07,21,1.50
2013,03,25,07,22,1.50
2013,03,25,07,23,1.50
2013,03,25,07,24,1.50
2013,03,25,07,25,1.60
2013,03,25,07,26,1.60
2013,03,25,07,27,1.60
2013,03,25,07,28,1.50
2013,03,25,07,29,1.50
2013,03,25,07,30,1.40
2013,03,25,07,31,1.40
2013,03,25,07,32,1.40
2013,03,25,07,33,1.40
2013,03,25,07,34,1.40
2013,03,25,07,35,1.50
2013,03,25,07,36,1.50
2013,03,25,07,37,1.50
2013,03,25,07,38,1.50
2013,03,25,07,39,1.60
2013,03,25,07,40,1.60
2013,03,25,07,41,1.60
2013,03,25,07,42,1.60
2013,03,25,07,43,1.60
2013,03,25,07,44,1.60
2013,03,25,07,45,1.60
2013,03,25,07,46,1.60
2013,03,25,07,47,1.70
2013,03,25,07,48,1.70
2013,03,25,07,49,1.80
2013,03,25,07,50,1.80
2013,03,25,07,51,1.80
2013,03,25,07,52,1.90
2013,03,25,07,53,1.90
2013,03,25,07,54,2.00
2013,03,25,07,55,2.00
2013,03,25,07,56,2.00
2013,03,25,07,57,2.00
2013,03,25,07,58,2.10
2013,03,25,07,59,2.10
2013,03,25,08,00,2.10
2013,03,25,08,01,2.20
2013,03,25,08,02,2.20
2013,03,25,08,03,2.20
2013,03,25,08,04,2.30
2013,03,25,08,05,2.40
2013,03,25,08,06,2.50
2013,03,25,08,07,2.50
2013,03,25,08,08,2.60
2013,03,25,08,09,2.60
2013,03,25,08,10,2.70
2013,03,25,08,11,2.70
2013,03,25,08,12,2.70
2013,03,25,08,13,2.80
2013,03,25,08,14,2.90
2013,03,25,08,15,2.90
2013,03,25,08,16,3.00
2013,03,25,08,17,3.10
2013,03,25,08,18,3.10
2013,03,25,08,19,3.10
2013,03,25,08,20,3.20
2013,03,25,08,21,3.20
2013,03,25,08,22,3.30
2013,03,25,08,23,3.30
2013,03,25,08,24,3.40
2013,03,25,08,25,3.40
2013,03,25,08,26,3.50
2013,03,25,08,27,3.60
2013,03,25,08,28,3.60
2013,03,25,08,29,3.80
2013,03,25,08,30,3.80
2013,03,25,08,31,3.90
2013,03,25,08,32,4.00
2013,03,25,08,33,4.00
2013,03,25,08,34,4.10
2013,03,25,08,35,4.20
2013,03,25,08,36,4.30
2013,03,25,08,37,4.40
2013,03,25,08,38,4.50
2013,03,25,08,39,4.50
2013,03,25,08,40,4.60
2013,03,25,08,41,4.60
2013,03,25,08,42,4.70
2013,03,25,08,43,4.70
2013,03,25,08,44,4.80
2013,03,25,08,45,4.90
2013,03,25,08,46,4.90
2013,03,25,08,47,5.00
2013,03,25,08,48,5.10
2013,03,25,08,49,5.10
2013,03,25,08,50,5.10
2013,03,25,08,51,5.20
2013,03,25,08,52,5.30
2013,03,25,08,53,5.30
2013,03,25,08,54,5.30
2013,03,25,08,55,5.40
2013,03,25,08,56,5.50
2013,03,25,08,57,5.60
2013,03,25,08,58,5.60
2013,03,25,08,59,5.70
2013,03,25,09,00,5.70
2013,03,25,09,01,5.70
2013,03,25,09,02,5.80
2013,03,25,09,03,5.80
2013,03,25,09,04,5.90
2013,03,25,09,05,5.90
2013,03,25,09,06,5.90
2013,03,25,09,07,6.00
2013,03,25,09,08,6.00
2013,03,25,09,09,6.00
2013,03,25,09,10,6.10
2013,03,25,09,11,6.10
2013,03,25,09,12,6.20
2013,03,25,09,13,6.20
2013,03,25,09,14,6.20
2013,03,25,09,15,6.20
2013,03,25,09,16,6.30
2013,03,25,09,17,6.30
2013,03,25,09,18,6.40
2013,03,25,09,19,6.40
2013,03,25,09,20,6.40
2013,03,25,09,21,6.40
2013,03,25,09,22,6.40
2013,03,25,09,23,6.40
2013,03,25,09,24,6.50
2013,03,25,09,25,6.60
2013,03,25,09,26,6.60
2013,03,25,09,27,6.70
2013,03,25,09,28,6.80
2013,03,25,09,29,6.90
2013,03,25,09,30,7.00
2013,03,25,09,31,7.00
2013,03,25,09,32,7.10
2013,03,25,09,33,7.30
2013,03,25,09,34,7.40
2013,03,25,09,35,7.50
2013,03,25,09,36,7.50
2013,03,25,09,37,7.60
2013,03,25,09,38,7.70
2013,03,25,09,39,7.70
2013,03,25,09,40,7.70
2013,03,25,09,41,7.80
2013,03,25,09,42,7.70
2013,03,25,09,43,7.70
2013,03,25,09,44,7.70
2013,03,25,09,45,7.70
2013,03,25,09,46,7.70
2013,03,25,09,47,7.70
2013,03,25,09,48,7.70
2013,03,25,09,49,7.80
2013,03,25,09,50,7.80
2013,03,25,09,51,7.80
2013,03,25,09,52,7.80
2013,03,25,09,53,7.80
2013,03,25,09,54,7.80
2013,03,25,09,55,7.90
2013,03,25,09,56,7.90
2013,03,25,09,57,7.90
2013,03,25,09,58,7.90
2013,03,25,09,59,8.00
2013,03,25,10,00,8.00
2013,03,25,10,01,8.00
2013,03,25,10,02,8.00
2013,03,25,10,03,8.00
2013,03,25,10,04,8.00
2013,03,25,10,05,8.00
2013,03,25,10,06,8.00
2013,03,25,10,07,8.10
2013,03,25,10,08,8.10
2013,03,25,10,09,8.20
2013,03,25,10,10,8.20
2013,03,25,10,11,8.20
2013,03,25,10,12,8.20
2013,03,25,10,13,8.20
2013,03,25,10,14,8.20
2013,03,25,10,15,8.20
2013,03,25,10,16,8.30
2013,03,25,10,17,8.30
2013,03,25,10,18,8.40
2013,03,25,10,19,8.60
2013,03,25,10,20,8.70
2013,03,25,10,21,8.70
2013,03,25,10,22,8.70
2013,03,25,10,23,8.70
2013,03,25,10,24,8.70
2013,03,25,10,25,8.80
2013,03,25,10,26,8.80
2013,03,25,10,27,8.80
2013,03,25,10,28,8.70
2013,03,25,10,29,8.70
2013,03,25,10,30,8.60
2013,03,25,10,31,8.60
2013,03,25,10,32,8.50
2013,03,25,10,33,8.40
2013,03,25,10,34,8.40
2013,03,25,10,35,8.40
2013,03,25,10,36,8.40
2013,03,25,10,37,8.40
2013,03,25,10,38,8.40
2013,03,25,10,39,8.40
2013,03,25,10,40,8.40
2013,03,25,10,41,8.40
2013,03,25,10,42,8.50
2013,03,25,10,43,8.50
2013,03,25,10,44,8.60
2013,03,25,10,45,8.70
2013,03,25,10,46,8.70
2013,03,25,10,47,8.70
2013,03,25,10,48,8.70
2013,03,25,10,49,8.70
2013,03,25,10,50,8.70
2013,03,25,10,51,8.70
2013,03,25,10,52,8.70
2013,03,25,10,53,8.70
2013,03,25,10,54,8.70
2013,03,25,10,55,8.70
2013,03,25,10,56,8.70
2013,03,25,10,57,8.70
2013,03,25,10,58,8.70
2013,03,25,10,59,8.80
2013,03,25,11,00,8.90
2013,03,25,11,01,8.90
2013,03,25,11,02,8.90
2013,03,25,11,03,8.90
2013,03,25,11,04,8.90
2013,03,25,11,05,9.00
2013,03,25,11,06,9.00
2013,03,25,11,07,9.00
2013,03,25,11,08,9.00
2013,03,25,11,09,9.00
2013,03,25,11,10,9.00
2013,03,25,11,11,9.00
2013,03,25,11,12,9.00
2013,03,25,11,13,9.20
2013,03,25,11,14,9.20
2013,03,25,11,15,9.30
2013,03,25,11,16,9.40
2013,03,25,11,17,9.50
2013,03,25,11,18,9.50
2013,03,25,11,19,9.60
2013,03,25,11,20,9.60
2013,03,25,11,21,9.60
2013,03,25,11,22,9.50
2013,03,25,11,23,9.40
2013,03,25,11,24,9.40
2013,03,25,11,25,9.30
2013,03,25,11,26,9.30
2013,03,25,11,27,9.30
2013,03,25,11,28,9.30
2013,03,25,11,29,9.40
2013,03,25,11,30,9.40
2013,03,25,11,31,9.40
2013,03,25,11,32,9.50
2013,03,25,11,33,9.50
2013,03,25,11,34,9.50
2013,03,25,11,35,9.50
2013,03,25,11,36,9.40
2013,03,25,11,37,9.40
2013,03,25,11,38,9.40
2013,03,25,11,39,9.40
2013,03,25,11,40,9.40
2013,03,25,11,41,9.40
2013,03,25,11,42,9.50
2013,03,25,11,43,9.60
2013,03,25,11,44,9.70
2013,03,25,11,45,9.80
2013,03,25,11,46,9.80
2013,03,25,11,47,9.80
2013,03,25,11,48,9.90
2013,03,25,11,49,9.90
2013,03,25,11,50,10.00
2013,03,25,11,51,10.00
2013,03,25,11,52,9.90
2013,03,25,11,53,9.90
2013,03,25,11,54,9.90
2013,03,25,11,55,10.00
2013,03,25,11,56,10.00
2013,03,25,11,57,9.90
2013,03,25,11,58,9.90
2013,03,25,11,59,9.90
2013,03,25,12,00,9.90
2013,03,25,12,01,9.90
2013,03,25,12,02,9.90
2013,03,25,12,03,9.90
2013,03,25,12,04,9.90
2013,03,25,12,05,9.90
2013,03,25,12,06,9.90
2013,03,25,12,07,9.90
2013,03,25,12,08,9.90
2013,03,25,12,09,10.00
2013,03,25,12,10,10.10
2013,03,25,12,11,10.10
2013,03,25,12,12,10.20
2013,03,25,12,13,10.20
2013,03,25,12,14,10.20
2013,03,25,12,15,10.20
2013,03,25,12,16,10.20
2013,03,25,12,17,10.30
2013,03,25,12,18,10.40
2013,03,25,12,19,10.50
2013,03,25,12,20,10.60
2013,03,25,12,21,10.70
2013,03,25,12,22,10.70
2013,03,25,12,23,10.80
2013,03,25,12,24,10.80
2013,03,25,12,25,10.80
2013,03,25,12,26,10.90
2013,03,25,12,27,10.90
2013,03,25,12,28,10.90
2013,03,25,12,29,11.00
2013,03,25,12,30,11.10
2013,03,25,12,31,11.10
2013,03,25,12,32,11.10
2013,03,25,12,33,11.10
2013,03,25,12,34,11.10
2013,03,25,12,35,11.10
2013,03,25,12,36,11.10
2013,03,25,12,37,11.10
2013,03,25,12,38,11.10
2013,03,25,12,39,11.10
2013,03,25,12,40,11.10
2013,03,25,12,41,11.10
2013,03,25,12,42,11.10
2013,03,25,12,43,11.10
2013,03,25,12,44,11.00
2013,03,25,12,45,10.90
2013,03,25,12,46,10.80
2013,03,25,12,47,10.70
2013,03,25,12,48,10.70
2013,03,25,12,49,10.70
2013,03,25,12,50,10.70
2013,03,25,12,51,10.60
2013,03,25,12,52,10.70
2013,03,25,12,53,10.80
2013,03,25,12,54,10.90
2013,03,25,12,55,11.10
2013,03,25,12,56,11.10
2013,03,25,12,57,11.10
2013,03,25,12,58,11.00
2013,03,25,12,59,10.90
2013,03,25,13,00,10.90
2013,03,25,13,01,10.90
2013,03,25,13,02,10.90
2013,03,25,13,03,11.10
2013,03,25,13,04,11.10
2013,03,25,13,05,11.10
2013,03,25,13,06,11.20
2013,03,25,13,07,11.20
2013,03,25,13,08,11.20
2013,03,25,13,09,11.20
2013,03,25,13,10,11.30
2013,03,25,13,11,11.30
2013,03,25,13,12,11.30
2013,03,25,13,13,11.20
2013,03,25,13,14,11.10
2013,03,25,13,15,11.10
2013,03,25,13,16,11.10
2013,03,25,13,17,11.20
2013,03,25,13,18,11.20
2013,03,25,13,19,11.10
2013,03,25,13,20,11.10
2013,03,25,13,21,11.20
2013,03,25,13,22,11.20
2013,03,25,13,23,11.10
2013,03,25,13,24,11.10
2013,03,25,13,25,11.00
2013,03,25,13,26,10.90
2013,03,25,13,27,10.90
2013,03,25,13,28,10.90
2013,03,25,13,29,10.90
2013,03,25,13,30,11.00
2013,03,25,13,31,11.10
2013,03,25,13,32,11.10
2013,03,25,13,33,11.10
2013,03,25,13,34,11.00
2013,03,25,13,35,11.10
2013,03,25,13,36,11.10
2013,03,25,13,37,11.10
2013,03,25,13,38,11.10
2013,03,25,13,39,11.10
2013,03,25,13,40,11.10
2013,03,25,13,41,11.10
2013,03,25,13,42,11.10
2013,03,25,13,43,11.10
2013,03,25,13,44,11.10
2013,03,25,13,45,11.10
2013,03,25,13,46,11.10
2013,03,25,13,47,11.10
2013,03,25,13,48,11.10
2013,03,25,13,49,11.10
2013,03,25,13,50,11.10
2013,03,25,13,51,11.20
2013,03,25,13,52,11.20
2013,03,25,13,53,11.20
2013,03,25,13,54,11.30
2013,03,25,13,55,11.30
2013,03,25,13,56,11.40
2013,03,25,13,57,11.30
2013,03,25,13,58,11.40
2013,03,25,13,59,11.50
2013,03,25,14,00,11.60
2013,03,25,14,01,11.70
2013,03,25,14,02,11.80
2013,03,25,14,03,11.80
2013,03,25,14,04,11.80
2013,03,25,14,05,11.80
2013,03,25,14,06,11.80
2013,03,25,14,07,11.80
2013,03,25,14,08,11.80
2013,03,25,14,09,11.80
2013,03,25,14,10,11.80
2013,03,25,14,11,11.80
2013,03,25,14,12,11.80
2013,03,25,14,13,11.80
2013,03,25,14,14,11.80
2013,03,25,14,15,11.80
2013,03,25,14,16,11.80
2013,03,25,14,17,11.80
2013,03,25,14,18,11.80
2013,03,25,14,19,11.80
2013,03,25,14,20,11.80
2013,03,25,14,21,11.90
2013,03,25,14,22,11.90
2013,03,25,14,23,11.90
2013,03,25,14,24,12.00
2013,03,25,14,25,12.00
2013,03,25,14,26,11.90
2013,03,25,14,27,11.90
2013,03,25,14,28,11.80
2013,03,25,14,29,11.90
2013,03,25,14,30,11.90
2013,03,25,14,31,11.90
2013,03,25,14,32,11.90
2013,03,25,14,33,11.90
2013,03,25,14,34,11.90
2013,03,25,14,35,11.80
2013,03,25,14,36,11.80
2013,03,25,14,37,11.80
2013,03,25,14,38,11.80
2013,03,25,14,39,11.80
2013,03,25,14,40,11.80
2013,03,25,14,41,11.80
2013,03,25,14,42,11.80
2013,03,25,14,43,11.80
2013,03,25,14,44,11.90
2013,03,25,14,45,11.90
2013,03,25,14,46,11.90
2013,03,25,14,47,11.80
2013,03,25,14,48,11.80
2013,03,25,14,49,11.90
2013,03,25,14,50,11.90
2013,03,25,14,51,12.00
2013,03,25,14,52,12.10
2013,03,25,14,53,12.20
2013,03,25,14,54,12.30
2013,03,25,14,55,12.30
2013,03,25,14,56,12.30
2013,03,25,14,57,12.30
2013,03,25,14,58,12.30
2013,03,25,14,59,12.20
2013,03,25,15,00,12.20
2013,03,25,15,01,12.20
2013,03,25,15,02,12.20
2013,03,25,15,03,12.20
2013,03,25,15,04,12.20
2013,03,25,15,05,12.10
2013,03,25,15,06,12.10
2013,03,25,15,07,12.10
2013,03,25,15,08,12.10
2013,03,25,15,09,12.10
2013,03,25,15,10,12.10
2013,03,25,15,11,12.10
2013,03,25,15,12,12.00
2013,03,25,15,13,12.00
2013,03,25,15,14,12.00
2013,03,25,15,15,12.00
2013,03,25,15,16,12.00
2013,03,25,15,17,12.10
2013,03,25,15,18,12.10
2013,03,25,15,19,12.20
2013,03,25,15,20,12.20
2013,03,25,15,21,12.20
2013,03,25,15,22,12.10
2013,03,25,15,23,12.10
2013,03,25,15,24,12.10
2013,03,25,15,25,12.20
2013,03,25,15,26,12.20
2013,03,25,15,27,12.20
2013,03,25,15,28,12.20
2013,03,25,15,29,12.20
2013,03,25,15,30,12.20
2013,03,25,15,31,12.20
2013,03,25,15,32,12.20
2013,03,25,15,33,12.20
2013,03,25,15,34,12.20
2013,03,25,15,35,12.20
2013,03,25,15,36,12.20
2013,03,25,15,37,12.20
2013,03,25,15,38,12.20
2013,03,25,15,39,12.20
2013,03,25,15,40,12.20
2013,03,25,15,41,12.20
2013,03,25,15,42,12.30
2013,03,25,15,43,12.30
2013,03,25,15,44,12.30
2013,03,25,15,45,12.30
2013,03,25,15,46,12.30
2013,03,25,15,47,12.30
2013,03,25,15,48,12.30
2013,03,25,15,49,12.30
2013,03,25,15,50,12.30
2013,03,25,15,51,12.30
2013,03,25,15,52,12.30
2013,03,25,15,53,12.30
2013,03,25,15,54,12.30
2013,03,25,15,55,12.30
2013,03,25,15,56,12.30
2013,03,25,15,57,12.30
2013,03,25,15,58,12.30
2013,03,25,15,59,12.30
2013,03,25,16,00,12.30
2013,03,25,16,01,12.30
2013,03,25,16,02,12.30
2013,03,25,16,03,12.40
2013,03,25,16,04,12.40
2013,03,25,16,05,12.40
2013,03,25,16,06,12.40
2013,03,25,16,07,12.50
2013,03,25,16,08,12.50
2013,03,25,16,09,12.50
2013,03,25,16,10,12.50
2013,03,25,16,11,12.50
2013,03,25,16,12,12.50
2013,03,25,16,13,12.50
2013,03,25,16,14,12.50
2013,03,25,16,15,12.50
2013,03,25,16,16,12.50
2013,03,25,16,17,12.60
2013,03,25,16,18,12.60
2013,03,25,16,19,12.70
2013,03,25,16,20,12.70
2013,03,25,16,21,12.70
2013,03,25,16,22,12.70
2013,03,25,16,23,12.80
2013,03,25,16,24,12.80
2013,03,25,16,25,12.80
2013,03,25,16,26,12.80
2013,03,25,16,27,12.80
2013,03,25,16,28,12.80
2013,03,25,16,29,12.80
2013,03,25,16,30,12.80
2013,03,25,16,31,12.80
2013,03,25,16,32,12.80
2013,03,25,16,33,12.90
2013,03,25,16,34,13.00
2013,03,25,16,35,13.00
2013,03,25,16,36,13.00
2013,03,25,16,37,13.00
2013,03,25,16,38,12.90
2013,03,25,16,39,12.90
2013,03,25,16,40,12.80
2013,03,25,16,41,12.80
2013,03,25,16,42,12.80
2013,03,25,16,43,12.80
2013,03,25,16,44,12.80
2013,03,25,16,45,12.80
2013,03,25,16,46,12.80
2013,03,25,16,47,12.80
2013,03,25,16,48,12.80
2013,03,25,16,49,12.80
2013,03,25,16,50,12.80
2013,03,25,16,51,12.80
2013,03,25,16,52,12.80
2013,03,25,16,53,12.80
2013,03,25,16,54,12.80
2013,03,25,16,55,12.90
2013,03,25,16,56,12.90
2013,03,25,16,57,12.90
2013,03,25,16,58,12.90
2013,03,25,16,59,12.90
2013,03,25,17,00,12.90
2013,03,25,17,01,12.80
2013,03,25,17,02,12.80
2013,03,25,17,03,12.80
2013,03,25,17,04,12.80
2013,03,25,17,05,12.80
2013,03,25,17,06,12.80
2013,03,25,17,07,12.80
2013,03,25,17,08,12.80
2013,03,25,17,09,12.80
2013,03,25,17,10,12.80
2013,03,25,17,11,12.80
2013,03,25,17,12,12.80
2013,03,25,17,13,12.80
2013,03,25,17,14,12.80
2013,03,25,17,15,12.80
2013,03,25,17,16,12.80
2013,03,25,17,17,12.80
2013,03,25,17,18,12.80
2013,03,25,17,19,12.80
2013,03,25,17,20,12.80
2013,03,25,17,21,12.80
2013,03,25,17,22,12.80
2013,03,25,17,23,12.80
2013,03,25,17,24,12.90
2013,03,25,17,25,13.00
2013,03,25,17,26,13.00
2013,03,25,17,27,13.10
2013,03,25,17,28,13.10
2013,03,25,17,29,13.10
2013,03,25,17,30,13.10
2013,03,25,17,31,13.10
2013,03,25,17,32,13.10
2013,03,25,17,33,13.10
2013,03,25,17,34,13.10
2013,03,25,17,35,13.10
2013,03,25,17,36,13.10
2013,03,25,17,37,13.10
2013,03,25,17,38,13.10
2013,03,25,17,39,13.10
2013,03,25,17,40,13.10
2013,03,25,17,41,13.00
2013,03,25,17,42,13.10
2013,03,25,17,43,13.10
2013,03,25,17,44,13.10
2013,03,25,17,45,13.10
2013,03,25,17,46,13.10
2013,03,25,17,47,13.20
2013,03,25,17,48,13.20
2013,03,25,17,49,13.20
2013,03,25,17,50,13.20